{"data":{"norad_id":56759,"epoch":"2026-09-19T22:43:10.746624Z","epoch_age_seconds":69801,"freshness":"FRESH","line1":"1 56759U 23076A   26262.94665216 -.00000342  00000+0  00000+0 0  9995","line2":"2 56759   1.9505 239.9517 0005801   0.3573 228.8996  1.00273981 12066","mean_motion":1.00273981,"eccentricity":0.0005801,"inclination_deg":1.9505,"raan_deg":239.9517,"arg_perigee_deg":0.3573,"mean_anomaly_deg":228.8996,"bstar":0,"rev_number":1206,"period_min":1436.0654535098,"perigee_km":35761.519950012,"apogee_km":35810.438757806,"semimajor_km":42164.116353909,"source":"CELESTRAK","updated_at":"2026-09-20T09:00:45.823017Z"}}